When you browse on this site, cookies collect data to enhance your experience and personalize the content and advertising you see.
Visit our Privacy Policy to learn more. By continuing to use the site, you agree to this use of cookies and data.
  • In Hungary
  • List of Countries
  • For 7 days
  • Water Temperature
  • Satellite Maps
  • Weather Map
  • News
  • Weather Widgets
  • user-avatar
    Login

    Hourly Weather Piraquara

    Today, 19 November, Monday

    Time Temperature Precipitation Wind Pressure Humidity
    00:00 +17°C° 0.1 mm 2 mps 683 mmHg 98%
    01:00 +17°C° 0.1 mm 2 mps 683 mmHg 98%
    02:00 +17°C° 0.1 mm 2 mps 682 mmHg 98%
    03:00 +16°C° 0.1 mm 2 mps 682 mmHg 97%
    04:00 +16°C° 0.1 mm 2 mps 683 mmHg 97%
    05:00 +16°C° 0.1 mm 2 mps 683 mmHg 97%
    06:00 +16°C° 0.1 mm 2 mps 683 mmHg 97%
    07:00 +16°C° 0.1 mm 2 mps 684 mmHg 94%
    08:00 +17°C° 0.1 mm 2 mps 684 mmHg 91%
    09:00 +17°C° 0.1 mm 2 mps 685 mmHg 87%
    10:00 +17°C° 0.1 mm 2 mps 685 mmHg 86%
    11:00 +17°C° 0.1 mm 2 mps 685 mmHg 85%
    12:00 +17°C° 0.1 mm 2 mps 685 mmHg 83%
    13:00 +17°C° 0 mm 2 mps 684 mmHg 83%
    14:00 +17°C° 0 mm 2 mps 684 mmHg 83%
    15:00 +17°C° 0 mm 2 mps 684 mmHg 83%
    16:00 +16°C° 0 mm 2 mps 684 mmHg 84%
    17:00 +16°C° 0 mm 2 mps 684 mmHg 84%
    18:00 +16°C° 0 mm 2 mps 684 mmHg 85%
    19:00 +15°C° 0 mm 2 mps 684 mmHg 87%
    20:00 +14°C° 0 mm 1 mps 684 mmHg 90%
    21:00 +13°C° 0 mm 1 mps 685 mmHg 93%
    22:00 +13°C° 0 mm 1 mps 685 mmHg 94%
    23:00 +13°C° 0 mm 1 mps 685 mmHg 96%

    Tomorrow, 20 November, Tuesday

    Time Temperature Precipitation Wind Pressure Humidity
    00:00 +12°C° 0 mm 1 mps 685 mmHg 97%
    01:00 +13°C° 0 mm 1 mps 685 mmHg 96%
    02:00 +13°C° 0 mm 1 mps 685 mmHg 96%
    03:00 +13°C° 0 mm 1 mps 684 mmHg 95%
    04:00 +13°C° 0 mm 1 mps 684 mmHg 95%
    05:00 +13°C° 0 mm 1 mps 685 mmHg 95%
    06:00 +13°C° 0 mm 1 mps 685 mmHg 95%
    07:00 +14°C° 0.1 mm 1 mps 685 mmHg 90%
    08:00 +15°C° 0.1 mm 1 mps 686 mmHg 85%
    09:00 +16°C° 0.1 mm 1 mps 686 mmHg 80%
    10:00 +17°C° 0 mm 2 mps 687 mmHg 73%
    11:00 +19°C° 0 mm 2 mps 687 mmHg 65%
    12:00 +21°C° 0 mm 2 mps 687 mmHg 58%
    13:00 +21°C° 0 mm 2 mps 687 mmHg 57%
    14:00 +23°C° 0 mm 2 mps 686 mmHg 55%
    15:00 +23°C° 0 mm 2 mps 686 mmHg 54%
    16:00 +21°C° 0 mm 2 mps 685 mmHg 60%
    17:00 +19°C° 0 mm 2 mps 685 mmHg 67%
    18:00 +18°C° 0 mm 2 mps 685 mmHg 73%
    19:00 +16°C° 0 mm 2 mps 685 mmHg 80%
    20:00 +14°C° 0 mm 1 mps 685 mmHg 88%
    21:00 +13°C° 0 mm 1 mps 686 mmHg 95%
    22:00 +12°C° 0 mm 1 mps 686 mmHg 96%
    23:00 +12°C° 0 mm 1 mps 686 mmHg 97%

    Day after tomorrow, 21 November, Wednesday

    Time Temperature Precipitation Wind Pressure Humidity
    00:00 +12°C° 0 mm 1 mps 686 mmHg 98%
    01:00 +12°C° 0 mm 1 mps 686 mmHg 97%
    02:00 +12°C° 0 mm 1 mps 685 mmHg 97%
    03:00 +12°C° 0 mm 1 mps 685 mmHg 97%
    04:00 +12°C° 0 mm 1 mps 685 mmHg 97%
    05:00 +12°C° 0 mm 1 mps 685 mmHg 96%
    06:00 +12°C° 0 mm 1 mps 685 mmHg 96%
    07:00 +14°C° 0 mm 1 mps 686 mmHg 88%
    08:00 +16°C° 0 mm 1 mps 686 mmHg 81%
    09:00 +19°C° 0 mm 1 mps 687 mmHg 73%
    10:00 +20°C° 0 mm 1 mps 687 mmHg 73%
    11:00 +20°C° 0 mm 1 mps 687 mmHg 72%
    12:00 +21°C° 0 mm 1 mps 687 mmHg 72%
    13:00 +20°C° 0 mm 2 mps 686 mmHg 70%
    14:00 +21°C° 0 mm 2 mps 686 mmHg 68%
    15:00 +23°C° 0 mm 2 mps 685 mmHg 66%
    16:00 +21°C° 0 mm 2 mps 685 mmHg 71%
    17:00 +20°C° 0 mm 2 mps 685 mmHg 76%
    18:00 +19°C° 0 mm 2 mps 685 mmHg 80%
    19:00 +19°C° 0 mm 1 mps 685 mmHg 85%
    20:00 +18°C° 0 mm 1 mps 685 mmHg 91%
    21:00 +16°C° 0 mm 1 mps 685 mmHg 96%
    22:00 +16°C° 0 mm 1 mps 685 mmHg 96%
    23:00 +16°C° 0 mm 1 mps 685 mmHg 97%

    22 November, Thursday

    Time Temperature Precipitation Wind Pressure Humidity
    00:00 +16°C° 0 mm 1 mps 685 mmHg 97%
    01:00 +16°C° 0 mm 1 mps 684 mmHg 97%
    02:00 +16°C° 0 mm 1 mps 684 mmHg 97%
    03:00 +15°C° 0 mm 0 mps 683 mmHg 97%
    04:00 +15°C° 0 mm 0 mps 684 mmHg 97%
    05:00 +15°C° 0 mm 0 mps 684 mmHg 97%
    06:00 +15°C° 0 mm 0 mps 684 mmHg 97%
    07:00 +18°C° 0 mm 1 mps 685 mmHg 92%
    08:00 +20°C° 0 mm 1 mps 685 mmHg 86%
    09:00 +21°C° 0 mm 1 mps 686 mmHg 80%
    10:00 +22°C° 0.1 mm 1 mps 685 mmHg 78%
    11:00 +23°C° 0.1 mm 1 mps 685 mmHg 75%
    12:00 +24°C° 0.1 mm 1 mps 685 mmHg 73%
    13:00 +25°C° 0.2 mm 1 mps 685 mmHg 70%
    14:00 +26°C° 0.2 mm 1 mps 684 mmHg 67%
    15:00 +27°C° 0.2 mm 1 mps 683 mmHg 64%
    16:00 +25°C° 0.3 mm 1 mps 683 mmHg 71%
    17:00 +24°C° 0.3 mm 1 mps 683 mmHg 78%
    18:00 +23°C° 0.3 mm 1 mps 683 mmHg 85%
    19:00 +22°C° 0.1 mm 1 mps 683 mmHg 89%
    20:00 +21°C° 0.1 mm 1 mps 683 mmHg 93%
    21:00 +20°C° 0.1 mm 1 mps 683 mmHg 97%
    22:00 +20°C° 0 mm 1 mps 683 mmHg 98%
    23:00 +19°C° 0 mm 1 mps 683 mmHg 98%

    23 November, Friday

    Time Temperature Precipitation Wind Pressure Humidity
    00:00 +17°C° 0 mm 0 mps 683 mmHg 99%
    01:00 +17°C° 0 mm 0 mps 682 mmHg 99%
    02:00 +16°C° 0 mm 0 mps 682 mmHg 98%
    03:00 +16°C° 0 mm 0 mps 681 mmHg 98%
    04:00 +16°C° 0 mm 0 mps 682 mmHg 98%
    05:00 +16°C° 0 mm 0 mps 682 mmHg 98%
    06:00 +18°C° 0 mm 1 mps 682 mmHg 97%
    07:00 +21°C° 0 mm 1 mps 683 mmHg 86%
    08:00 +23°C° 0 mm 1 mps 684 mmHg 75%
    09:00 +26°C° 0 mm 1 mps 684 mmHg 64%
    10:00 +27°C° 0.8 mm 1 mps 684 mmHg 61%
    11:00 +28°C° 0.8 mm 1 mps 684 mmHg 59%
    12:00 +29°C° 0.8 mm 1 mps 684 mmHg 56%
    13:00 +29°C° 0.9 mm 1 mps 683 mmHg 58%
    14:00 +29°C° 0.9 mm 1 mps 682 mmHg 61%
    15:00 +29°C° 0.9 mm 1 mps 682 mmHg 63%
    16:00 +27°C° 0.8 mm 1 mps 681 mmHg 70%
    17:00 +25°C° 0.8 mm 1 mps 681 mmHg 77%
    18:00 +24°C° 0.8 mm 1 mps 681 mmHg 83%
    19:00 +23°C° 0.3 mm 1 mps 681 mmHg 87%
    20:00 +20°C° 0.3 mm 0 mps 681 mmHg 90%
    21:00 +19°C° 0.3 mm 0 mps 682 mmHg 93%
    22:00 +19°C° 1.1 mm 0 mps 681 mmHg 94%
    23:00 +18°C° 1.1 mm 0 mps 681 mmHg 95%

    24 November, Saturday

    Time Temperature Precipitation Wind Pressure Humidity
    00:00 +18°C° 1.1 mm 0 mps 681 mmHg 96%
    01:00 +18°C° 1 mm 0 mps 681 mmHg 95%
    02:00 +18°C° 1 mm 0 mps 680 mmHg 95%
    03:00 +18°C° 1 mm 0 mps 680 mmHg 95%
    04:00 +17°C° 0.9 mm 0 mps 681 mmHg 95%
    05:00 +19°C° 0.9 mm 1 mps 681 mmHg 96%
    06:00 +19°C° 0.9 mm 1 mps 681 mmHg 96%
    07:00 +20°C° 0.9 mm 1 mps 682 mmHg 96%
    08:00 +20°C° 0.9 mm 1 mps 682 mmHg 95%
    09:00 +21°C° 0.9 mm 1 mps 683 mmHg 94%
    10:00 +21°C° 0.5 mm 1 mps 682 mmHg 92%
    11:00 +22°C° 0.5 mm 1 mps 682 mmHg 90%
    12:00 +22°C° 0.5 mm 1 mps 682 mmHg 88%
    13:00 +22°C° 0.6 mm 1 mps 681 mmHg 89%
    14:00 +22°C° 0.6 mm 1 mps 681 mmHg 90%
    15:00 +22°C° 0.6 mm 1 mps 680 mmHg 91%
    16:00 +21°C° 0.7 mm 1 mps 680 mmHg 92%
    17:00 +20°C° 0.7 mm 1 mps 680 mmHg 94%
    18:00 +20°C° 0.7 mm 1 mps 680 mmHg 95%
    19:00 +19°C° 0.3 mm 1 mps 681 mmHg 96%
    20:00 +19°C° 0.3 mm 1 mps 681 mmHg 96%
    21:00 +19°C° 0.3 mm 1 mps 681 mmHg 97%
    22:00 +19°C° 0.2 mm 1 mps 681 mmHg 97%
    23:00 +18°C° 0.2 mm 1 mps 681 mmHg 97%
    Show more